This is the latest recevied weather packets stored in our database for station/object WP3OF-2. If no packets are shown the sender has not sent any weather packets the latest 1 day(s).
| Time | Temp. | Humidity | Pressure | Rain* | Wind** | Luminosity | Snow |
|---|---|---|---|---|---|---|---|
| 1778027324 | 20° C | 94% | 1027.1 hPa | 0 mm | - | 0 W/m² | - |
| 1778026716 | 20° C | 93% | 1027.1 hPa | 0 mm | - | 0 W/m² | - |
| 1778025505 | 20° C | 96% | 1027.1 hPa | 0 mm | - | 0 W/m² | - |
| 1778023992 | 20° C | 99% | 1026.7 hPa | 0 mm | - | 0 W/m² | - |
| 1778023083 | 20° C | 98% | 1027.1 hPa | 0 mm | - | 0 W/m² | - |
| 1778022479 | 20° C | 98% | 1026.7 hPa | 0 mm | - | 0 W/m² | - |
| 1778019748 | 21.11° C | 95% | 1026.3 hPa | 0 mm | - | 27 W/m² | - |
| 1778019142 | 21.11° C | 94% | 1026.3 hPa | 0 mm | - | 59 W/m² | - |
| 1778017931 | 21.67° C | 93% | 1026 hPa | 0 mm | - | 124 W/m² | - |
| 1778017321 | 21.67° C | 93% | 1026 hPa | 0 mm | - | 163 W/m² | - |
| 1778016411 | 21.67° C | 92% | 1026 hPa | 0 mm | - | 227 W/m² | - |
| 1778014896 | 22.22° C | 91% | 1026 hPa | 0 mm | - | 324 W/m² | - |
| 1778013988 | 22.22° C | 90% | 1026 hPa | 0 mm | - | 386 W/m² | - |
| 1778013686 | 22.22° C | 90% | 1026 hPa | 0 mm | - | 409 W/m² | - |
| 1778013079 | 22.78° C | 90% | 1026 hPa | 0 mm | - | 441 W/m² | - |
| 1778009738 | 23.33° C | 88% | 1026 hPa | 0 mm | - | 604 W/m² | - |
| 1778009435 | 23.33° C | 89% | 1026.3 hPa | 0 mm | - | 635 W/m² | - |
| 1778008831 | 23.33° C | 88% | 1026 hPa | 0 mm | - | 642 W/m² | - |
| 1778008529 | 23.89° C | 88% | 1026.3 hPa | 0 mm | - | 653 W/m² | - |
| 1778007926 | 23.89° C | 86% | 1026.3 hPa | 0 mm | - | 676 W/m² | - |
* Rain latest hour (hover to see other rain measurements)
** Current wind speed in m/s (hover to see current wind gust speed)